{"data":{"norad_id":62579,"intl_designator":"2025-007E","name":"CENTISPACE-1 S10","alt_names":[],"object_type":"PAYLOAD","status":"ACTIVE","operator":null,"country":"PRC","launch_date":"2025-01-13","launch_site_code":"YSLA","launch_vehicle":null,"mission":null,"orbit_class":"UNKNOWN","rcs_meters":null,"size_class":null,"mass_kg":null,"dimensions":null,"purposes":[],"wikipedia_slug":null,"has_3d_model":false,"image_url":null,"decayed_at":null,"tle_current":{"epoch":"2026-09-22T19:09:54.621504Z","epoch_age_seconds":118816,"freshness":"FRESH","line1":"1 62579U 25007E   26265.79854886 -.00000062  00000+0  74286-4 0  9998","line2":"2 62579  54.9896 310.1835 0009354 289.1832  70.8112 13.80624847 88218","mean_motion":13.80624847,"eccentricity":0.0009354,"inclination_deg":54.9896,"raan_deg":310.1835,"arg_perigee_deg":289.1832,"mean_anomaly_deg":70.8112,"bstar":7.4286e-5,"rev_number":8821,"period_min":104.30060006011,"perigee_km":954.80565521378,"apogee_km":968.5369686037,"semimajor_km":7339.8083119087,"source":"CELESTRAK","updated_at":"2026-09-23T09:00:21.489623Z"}}}